Погода в Хрипунове

Россия / Нижегородская область     55°10′35″N   43°11′37″E
темп.,
°C
ветер,
м/с
пор.,
м/с
влажн.,
%
обл.,
%
осадки,
мм/ч
давл.,
гПа
погр.,
м
11 мая, вт
вт1100:00+7ссв6129898 0.0 1024333
03:00+7ссв6129796 0.0 1024321
06:00+8св6119599 0.0 1025326
09:00+13св7983100 0.0 1025466
12:00+18всв687151 0.0 1025698
15:00+20всв676584 0.0 1025993
18:00+18вюв5971100 2.5 1026209
21:00+13ююз479787 2.9 1027146
12 мая, ср
ср1200:00+12зюз22885 0.0 102816
03:00+11с229235 0.0 102725
06:00+12ссв379594 0.0 1026159
09:00+17в51078100 0.0 1025480
12:00+20вюв71260100 0.1 10241701
15:00+17вюв81570100 0.3 1024742
18:00+14вюв51486100 0.9 1024447
21:00+13юв5129170 0.9 1024373
13 мая, чт
чт1300:00+11вюв379473 0.0 1024141
03:00+12вюв499173 0.0 1023186
06:00+13в498926 0.0 1023238
09:00+19вюв71167100 0.0 1021637
12:00+16вюв7137297 0.2 1020564
15:00+19юв71075100 0.9 10191163
18:00+17ююв51184100 3.1 1018406
21:00+15ююв3692100 3.9 1018100
14 мая, пт
пт1400:00+13ю22944 0.0 101923
03:00+12ю119529 0.0 102010
06:00+14в119299 0.0 102061
09:00+18юв2380100 0.0 1020442
12:00+21ю3569100 0.0 1019929
15:00+24ю45586 0.0 10191531
18:00+22юв36721 0.0 1017206
21:00+17юв410875 0.0 1017164
15 мая, сб
сб1500:00+16ююв5138693 0.0 1016219
03:00+15ююв4118585 0.0 1016184
06:00+16ююв512785 0.0 1015236
09:00+21ююв71660100 0.0 1014658
12:00+23ю8165293 0.0 10141166
15:00+24ю814549 0.0 10131417
18:00+22ю5126779 0.0 1012372
21:00+17ю4108312 0.0 1012189